Theta_e
307 311 314 315 312 309 308 308 308 309 308 308 308 308 308 309 308 309 308 308 308 309 309 309 309 309 309 310 310 311 311 309 308 309 308 308 308 308 308 308 309 309 308 308 309 309 309 308 308 309 310 310 311 310 310 309 309 314 320 319 315 314 312 311 311 310 309 307 305 305 305 306 306 305 304 304 304 304 304 304 305 304 304 304 304 304 305 305
308 312 315 315 311 309 309 308 309 309 309 309 308 308 308 308 308 308 308 308 308 308 309 309 309 309 310 310 310 311 312 311 308 309 308 308 309 309 309 308 308 308 308 308 309 309 309 309 309 309 310 311 311 311 311 310 310 314 319 319 314 312 309 308 309 308 309 307 305 305 305 306 306 305 304 304 304 304 304 304 304 305 305 304 303 303 304 304
308 312 315 315 311 309 309 309 310 309 309 309 310 310 310 310 310 309 309 308 308 308 308 309 309 309 310 310 310 311 313 311 308 308 308 309 310 309 309 308 307 308 308 308 308 309 309 309 309 310 311 311 311 311 311 310 311 312 314 316 311 308 307 307 308 308 308 307 305 305 305 306 306 306 305 304 305 305 304 305 305 305 305 304 304 303 303 303
308 311 315 315 312 310 310 310 310 310 311 312 312 312 312 312 312 312 311 309 308 308 308 309 309 309 310 310 310 310 312 312 308 308 308 308 309 309 309 309 308 309 309 308 308 308 308 309 309 310 312 311 310 310 309 309 311 310 310 311 309 308 307 306 307 307 307 307 306 306 305 305 306 306 305 305 305 305 305 306 306 306 306 305 305 304 304 303
308 310 315 316 313 311 311 311 311 312 312 313 313 313 313 313 314 314 313 311 309 309 308 309 309 309 310 310 310 310 313 314 309 307 308 308 309 309 309 309 309 309 309 309 308 309 309 309 310 311 312 311 311 310 309 309 309 308 307 308 308 308 306 305 306 306 306 307 306 306 305 305 306 306 305 305 305 306 307 307 307 307 307 307 306 306 305 304
308 309 313 316 315 312 311 312 312 313 314 313 313 314 313 314 314 313 313 312 310 309 309 309 309 309 310 310 310 311 314 312 308 307 308 308 309 309 309 309 309 309 309 309 309 309 310 310 310 311 311 311 310 310 309 309 309 307 306 306 307 307 306 305 305 305 306 306 306 305 305 306 306 305 305 305 305 306 307 308 307 307 307 307 307 306 306 306
310 308 310 314 316 314 312 312 313 314 315 315 315 314 314 314 313 312 311 311 310 309 309 309 309 309 310 311 310 310 310 308 307 308 308 308 309 309 309 309 309 308 308 309 309 309 310 310 311 311 310 310 310 309 309 309 309 308 306 306 306 305 305 305 304 304 305 306 306 305 305 305 305 306 306 306 306 306 307 307 307 307 307 307 307 307 306 306
311 309 308 310 315 316 314 313 313 314 315 316 316 316 315 314 312 310 309 310 310 309 310 309 309 309 311 315 313 309 307 306 307 308 308 308 308 309 309 309 309 308 308 308 309 309 310 311 311 311 310 309 309 309 308 309 308 307 306 306 305 305 304 304 304 304 304 305 305 305 305 305 305 305 305 306 306 306 306 307 306 306 306 306 306 306 306 306
310 310 309 308 311 315 316 314 314 314 315 316 317 317 315 314 312 310 309 309 309 309 309 309 309 309 310 314 315 310 307 306 307 308 308 308 308 308 308 308 309 309 308 308 309 310 311 311 310 310 309 309 308 308 308 309 308 307 306 306 305 305 304 304 304 304 303 304 304 304 304 305 305 305 305 306 307 307 306 306 306 306 306 306 306 305 305 306
309 309 310 309 308 311 314 316 315 315 315 315 317 317 315 313 313 311 309 308 308 309 309 309 309 308 309 313 314 310 307 306 307 308 308 308 308 308 308 309 309 309 309 309 309 310 310 310 310 310 309 308 308 307 307 308 307 306 306 305 305 304 304 304 304 304 303 304 304 304 304 305 305 305 306 307 308 308 307 306 305 306 306 305 305 305 305 305
309 308 309 309 308 308 310 314 316 316 316 316 317 318 315 313 313 311 310 309 308 308 308 309 309 308 310 312 311 309 307 307 307 308 308 308 308 308 308 309 309 309 309 309 309 309 309 309 309 310 310 309 307 306 306 306 306 306 305 305 305 305 304 304 305 304 304 305 304 304 304 305 305 305 307 308 308 308 307 307 306 306 306 306 305 305 305 304
308 308 308 308 309 308 308 310 314 316 317 317 318 318 315 314 314 312 311 309 309 308 308 309 309 308 310 310 308 307 306 307 307 308 308 308 308 308 309 309 309 309 309 309 309 309 309 309 309 310 309 308 307 306 306 306 306 305 306 306 305 305 305 304 305 305 304 306 305 305 306 308 306 306 310 310 308 308 307 307 306 306 306 305 305 305 305 305
308 308 308 308 308 309 308 308 310 314 316 316 318 318 316 314 314 312 312 311 309 308 308 308 308 309 310 308 306 306 306 307 307 307 307 308 308 308 308 309 308 309 308 309 309 309 309 309 309 309 309 307 306 306 306 306 306 306 307 308 307 307 307 305 306 305 304 306 305 305 311 314 310 309 312 311 309 308 307 306 306 306 306 306 306 305 305 305
308 308 308 307 308 308 309 308 308 311 315 316 317 318 317 315 314 313 312 311 309 309 308 308 308 309 309 307 306 306 307 307 307 307 307 308 308 308 308 308 308 308 308 309 309 309 309 308 309 309 308 307 306 306 306 306 306 307 308 309 311 311 309 306 306 306 305 306 305 306 311 312 311 312 312 311 309 308 307 307 307 306 306 306 306 306 305 305
308 308 308 308 307 308 308 308 307 309 315 315 316 318 317 316 315 313 312 310 309 309 308 308 308 308 308 307 307 307 307 307 307 307 308 308 308 308 308 308 308 308 308 309 308 308 308 308 309 308 307 307 307 307 308 308 309 309 310 313 315 314 312 308 306 306 306 307 306 307 311 311 311 312 312 310 309 309 308 307 307 306 306 306 306 306 306 306
308 308 308 308 307 307 307 307 307 309 314 315 315 318 318 317 315 313 311 309 309 309 308 309 309 310 311 309 308 307 307 307 307 307 308 308 309 309 309 309 308 308 309 308 308 308 308 309 309 308 308 308 309 311 311 311 312 311 312 316 316 315 314 310 307 306 306 307 306 307 310 310 310 311 311 310 310 309 308 307 307 307 307 308 307 307 307 307
309 308 308 308 307 308 307 307 307 308 313 315 315 318 318 317 316 314 312 309 309 309 308 309 309 311 312 309 309 308 307 307 307 308 308 309 309 309 309 310 309 310 311 310 310 310 311 311 312 311 311 311 311 314 316 316 317 316 315 317 316 314 314 312 310 307 306 307 307 308 308 308 309 310 310 310 310 309 308 308 308 308 308 309 309 308 308 307
309 309 309 308 308 307 307 307 307 309 313 315 316 318 317 317 316 315 313 311 308 308 309 309 309 315 314 309 309 308 307 307 307 307 308 309 309 309 309 309 310 313 315 314 311 312 315 314 313 316 315 311 310 313 319 318 316 315 315 316 315 313 313 313 312 308 306 307 308 308 308 308 309 309 310 311 311 309 308 309 309 309 309 309 309 309 308 308
308 309 309 308 308 307 307 308 308 310 313 315 316 317 318 317 316 314 311 311 310 314 317 312 313 320 316 308 308 307 307 308 307 308 308 308 309 309 309 310 311 313 316 319 315 311 315 318 320 322 317 310 308 309 313 313 311 312 313 313 313 313 313 313 310 306 306 308 309 309 309 309 310 311 311 312 312 310 309 310 309 310 310 310 310 310 309 309
308 309 309 309 308 308 308 308 308 310 313 315 315 317 318 318 319 318 310 309 311 314 315 310 311 315 311 306 307 307 307 308 307 308 308 308 309 310 309 311 312 312 314 320 320 313 314 320 322 319 313 308 307 307 307 308 309 311 312 313 314 315 314 312 310 306 306 309 311 310 311 310 311 311 311 312 313 311 309 309 310 310 310 310 310 310 310 309
308 309 310 309 308 308 309 309 309 311 313 315 315 317 318 317 321 319 310 308 308 307 308 307 309 310 307 307 307 307 308 309 308 307 308 308 309 312 312 314 316 317 314 314 317 315 318 322 317 310 308 306 306 306 306 308 310 312 313 314 315 316 314 312 311 307 306 309 310 310 311 311 310 311 311 313 314 313 311 311 311 311 311 311 311 310 310 310
309 309 309 309 308 308 310 309 309 311 313 313 314 316 316 315 316 313 310 310 307 306 307 307 307 307 306 307 307 307 308 311 311 308 309 309 310 313 314 315 318 318 316 317 318 318 321 320 311 306 305 305 306 307 307 309 311 313 315 316 316 315 313 311 310 309 307 309 310 311 311 309 310 312 313 314 315 314 314 313 313 313 312 312 311 310 310 310
309 309 309 309 308 309 310 310 309 311 312 313 313 315 315 314 313 310 311 312 309 306 307 307 307 306 307 307 307 308 309 310 311 308 308 309 309 311 313 316 319 317 316 321 325 322 322 315 306 304 304 306 309 308 309 311 312 315 316 315 316 314 312 310 311 310 309 310 311 311 310 310 313 317 316 315 314 314 314 314 313 313 312 312 312 311 311 311
310 309 309 310 308 309 310 310 309 311 312 312 313 313 314 314 312 311 312 313 312 309 306 307 307 306 307 307 306 309 309 307 308 308 308 308 309 311 311 312 319 319 314 317 323 323 318 308 302 304 305 307 310 311 314 314 314 319 319 315 315 313 310 310 310 310 310 311 311 312 314 317 319 319 318 316 314 314 315 314 314 313 312 312 312 312 312 312
310 309 309 309 309 309 310 309 309 310 312 312 312 313 314 313 310 310 311 313 316 312 308 308 307 307 307 307 307 307 308 308 306 307 307 307 310 311 310 309 317 320 313 315 320 320 313 304 303 307 308 309 312 314 316 317 316 317 316 314 312 311 309 310 311 312 313 314 313 314 318 321 320 317 318 318 317 317 316 315 315 315 314 313 312 312 312 311
309 309 309 309 309 309 309 310 309 309 312 312 312 313 313 312 310 309 312 316 317 313 312 312 311 310 308 307 307 305 310 311 306 306 308 307 308 310 313 311 313 315 313 315 318 316 310 303 303 308 309 311 314 315 314 314 315 314 313 311 310 309 311 312 312 313 315 315 313 314 317 319 319 318 318 320 320 320 318 316 316 315 315 315 314 313 312 311
309 309 309 309 309 309 310 311 310 309 312 312 312 313 312 312 310 309 313 317 317 314 313 313 312 313 309 306 306 308 315 313 308 307 306 308 307 308 317 318 314 313 309 312 316 313 309 307 307 308 310 314 316 316 313 311 313 315 312 309 309 310 311 312 313 313 315 315 315 316 315 315 318 320 319 320 320 318 317 316 316 315 315 315 314 314 313 312
307 309 309 308 308 309 309 311 309 309 311 312 312 312 312 312 310 311 315 315 314 314 313 312 310 310 308 305 305 308 311 311 315 313 305 307 308 308 317 318 313 312 307 313 318 311 307 311 311 310 312 314 314 312 309 309 314 315 308 307 309 309 310 311 312 314 315 315 317 318 316 315 320 322 319 320 319 315 316 316 315 316 316 316 315 314 313 313
306 308 309 308 307 308 309 310 309 309 311 311 311 311 312 312 310 313 315 312 313 313 311 311 311 308 307 308 308 308 308 309 313 312 306 308 308 309 315 311 308 312 309 314 321 312 305 307 307 310 315 313 310 307 304 308 315 311 305 307 308 308 310 311 312 315 315 316 318 317 315 315 318 320 318 318 318 314 314 315 314 314 315 315 314 313 313 312
306 307 308 308 307 307 308 309 309 309 309 309 311 311 311 312 313 315 312 310 315 314 309 310 312 310 309 312 311 310 311 310 307 307 307 308 307 307 310 309 310 316 314 312 313 308 303 303 304 308 310 308 305 304 304 305 309 308 309 313 313 311 312 312 313 314 316 319 318 313 313 312 313 323 322 314 314 314 314 314 313 314 313 313 313 312 312 311
306 306 307 308 307 307 308 309 309 309 308 309 310 310 311 314 316 316 312 308 313 313 310 311 313 311 311 315 315 312 312 310 307 311 313 311 309 307 308 311 313 316 318 317 313 307 305 306 307 304 303 304 305 306 306 304 304 309 313 317 319 317 314 314 315 315 315 319 316 311 312 311 312 325 324 312 313 314 313 314 314 313 312 311 312 311 311 310
306 306 307 307 307 307 307 309 310 309 308 309 309 310 313 316 316 317 314 309 311 314 313 313 313 312 313 315 317 316 315 313 310 313 318 316 312 312 313 316 317 314 316 318 316 314 313 310 306 303 301 302 307 312 311 308 308 312 316 316 318 318 315 314 316 315 315 317 315 310 310 312 313 317 316 312 314 314 312 313 313 312 311 311 311 311 311 311
306 306 306 306 307 307 307 309 310 309 309 308 309 311 314 317 318 318 315 311 312 313 313 312 312 312 313 314 315 314 314 315 314 313 316 315 314 316 316 316 318 318 314 313 315 316 316 310 306 308 307 301 305 314 317 315 314 315 317 317 317 315 311 312 314 314 315 317 315 309 310 315 316 315 314 314 314 313 312 312 312 311 311 311 312 311 311 311
305 306 306 306 306 307 307 308 308 309 309 307 310 313 315 318 318 317 316 313 312 311 311 311 311 312 313 314 314 312 313 314 314 313 314 313 311 315 318 316 316 318 313 311 313 312 312 314 311 310 309 303 303 309 310 311 313 312 313 314 315 313 311 313 315 316 316 318 317 311 312 316 315 315 316 314 313 313 313 313 312 312 313 313 312 311 311 311
305 306 306 306 306 306 307 307 308 309 308 308 312 315 316 317 317 318 317 314 313 313 311 311 312 312 312 313 312 311 313 314 313 313 313 312 311 313 318 321 318 316 313 311 312 311 310 315 310 304 304 302 304 305 303 307 314 311 310 314 316 314 315 315 315 314 313 316 320 317 317 318 315 316 316 313 313 313 313 314 313 313 314 314 313 312 311 311
305 305 305 306 306 306 307 306 308 308 308 310 313 314 315 316 317 319 317 315 314 314 313 314 314 313 312 312 312 312 312 313 313 314 313 311 313 314 315 318 316 314 314 312 313 312 310 313 307 302 303 301 301 303 301 306 313 311 310 314 313 309 313 317 314 312 311 315 320 317 316 318 316 316 316 314 315 314 313 315 314 313 315 314 313 312 311 311
304 305 305 306 306 306 307 306 307 308 308 312 315 314 314 313 314 317 316 314 314 313 314 317 315 314 314 312 312 313 312 311 312 314 313 311 314 315 315 315 311 311 312 311 313 314 311 312 308 305 308 302 299 301 301 302 305 310 312 312 309 307 310 314 314 314 315 317 317 313 312 314 313 314 316 315 315 315 315 315 314 314 314 313 313 311 311 311
304 304 305 306 306 306 306 306 307 307 308 312 315 315 315 312 311 313 313 311 313 313 315 317 315 314 315 313 313 314 312 311 311 312 312 312 313 314 316 318 312 307 306 306 309 312 311 312 309 305 307 304 298 302 308 304 301 306 309 307 309 313 314 314 313 314 315 314 315 315 314 313 313 314 315 313 314 315 315 315 314 314 314 313 312 311 311 310
304 305 305 306 306 305 306 306 306 308 310 313 315 314 314 313 309 309 311 311 313 314 315 317 316 313 314 315 316 314 311 311 312 312 311 312 312 312 313 316 314 306 303 304 309 311 310 310 311 306 305 304 303 307 314 313 304 302 305 305 308 312 314 315 313 313 314 313 315 318 317 317 318 318 313 312 315 315 316 317 315 314 313 312 311 311 310 309
304 306 307 306 306 306 306 306 307 310 312 313 314 312 311 313 309 306 308 311 312 313 316 319 317 313 313 314 314 312 311 312 312 311 311 311 311 313 311 312 314 308 303 304 310 312 310 309 310 308 303 306 310 311 313 316 311 307 309 310 308 309 311 311 311 312 314 313 313 315 318 320 320 316 313 313 317 317 316 316 315 313 312 311 311 311 310 309
305 308 309 307 307 306 305 307 309 311 313 312 314 313 310 312 311 306 306 308 310 310 312 316 316 313 313 313 312 311 309 311 311 310 311 310 309 313 309 306 310 309 305 307 310 311 311 310 310 312 310 314 316 309 304 308 310 310 312 313 312 313 313 312 312 312 312 312 312 313 316 319 317 314 315 314 314 316 314 312 313 312 311 311 311 311 310 309
307 310 310 308 308 306 306 309 310 310 312 312 312 313 310 310 312 309 306 306 308 307 307 311 315 314 313 312 312 312 309 310 311 311 311 311 313 316 308 302 304 306 307 310 310 308 308 309 311 314 315 314 309 301 298 300 303 306 308 310 311 312 314 314 315 314 312 311 311 311 314 317 316 314 314 313 312 312 312 311 311 312 311 311 311 311 310 308
308 309 309 308 307 306 307 310 311 311 312 310 309 311 310 310 312 310 307 307 310 309 307 310 313 312 313 312 310 311 311 310 312 312 311 312 315 309 301 299 302 304 307 311 310 305 306 310 311 313 314 309 302 300 298 298 301 307 309 308 309 311 313 313 313 313 313 313 313 313 314 318 317 312 311 311 311 311 312 312 311 311 312 311 311 310 309 308
308 308 309 308 306 306 309 310 311 312 311 309 309 310 309 310 311 311 310 310 311 311 311 311 311 311 311 310 309 312 313 312 312 312 310 311 311 302 298 299 302 304 307 311 310 306 307 311 311 311 312 311 310 309 307 304 305 309 311 309 309 310 311 310 310 309 312 318 319 317 317 318 316 315 313 312 311 311 313 313 312 312 311 311 310 310 309 309
307 308 309 308 306 307 309 311 311 312 312 310 310 311 310 310 309 309 311 311 309 310 313 312 310 310 311 309 308 310 310 309 312 311 308 309 309 302 300 300 300 303 305 304 304 305 309 312 312 312 313 313 314 314 314 313 310 308 310 310 309 309 310 310 311 311 313 317 318 317 317 315 313 315 316 313 312 313 313 313 312 311 311 310 310 309 309 309
307 309 309 308 306 306 308 309 309 311 313 310 309 311 311 311 309 307 309 311 309 308 309 309 308 309 311 310 308 308 307 306 309 309 308 309 308 302 300 300 300 301 303 301 301 305 309 311 312 314 316 317 315 311 311 312 311 311 312 311 309 310 310 310 311 314 314 315 315 316 315 312 312 313 313 313 315 314 312 311 311 311 310 310 309 309 309 309
308 309 309 308 307 307 307 308 308 309 311 309 309 311 311 312 312 308 307 310 309 307 308 308 308 310 311 310 309 310 309 306 306 307 308 310 307 301 300 300 300 301 301 301 302 305 309 312 313 312 313 314 312 310 312 313 311 312 315 315 312 309 309 309 310 313 316 315 314 314 315 314 313 312 312 314 314 312 310 310 311 311 310 310 310 309 309 309
307 308 308 308 309 308 308 308 307 308 310 309 309 311 311 311 312 310 308 307 306 307 310 311 311 312 313 311 311 312 310 308 308 308 309 310 308 304 303 301 300 302 302 301 301 303 309 313 312 310 311 313 311 310 313 312 309 310 313 316 315 310 309 310 309 311 315 316 313 313 316 316 313 312 313 313 311 311 310 310 311 311 311 311 310 310 309 309
307 307 307 307 308 308 307 307 307 308 309 309 309 311 312 311 311 311 308 307 308 308 309 312 314 313 313 314 313 313 312 311 312 312 310 310 309 309 310 306 303 301 301 301 301 301 306 313 312 308 310 313 312 311 311 309 309 310 310 312 315 312 310 310 309 309 312 314 313 312 314 314 311 311 311 310 310 310 310 311 312 311 311 311 310 309 309 309
306 306 307 307 307 307 307 307 307 308 309 309 310 311 311 311 312 311 309 309 312 311 308 310 315 314 313 314 316 316 314 314 319 318 313 311 310 310 312 312 309 303 301 303 303 301 304 312 313 309 311 314 312 310 309 307 308 309 309 310 312 312 310 309 308 309 310 311 311 311 311 311 309 309 309 309 310 311 310 312 312 312 311 310 309 309 308 308
305 306 306 307 308 308 308 308 308 309 309 308 309 310 310 311 312 311 310 308 310 312 309 308 312 314 313 314 317 316 313 313 318 316 311 311 312 311 309 310 310 307 304 304 305 304 304 309 311 309 311 316 312 308 308 307 306 308 309 309 309 310 312 310 309 309 309 310 309 309 310 310 308 308 310 311 311 311 312 312 311 311 311 309 309 308 307 307
304 306 306 306 308 309 308 309 309 308 308 308 308 309 309 310 310 310 311 309 308 310 310 307 310 313 314 314 314 313 312 312 312 311 309 308 309 309 308 307 307 308 306 304 306 307 306 309 313 312 314 316 310 307 309 311 311 313 315 314 310 308 309 310 310 310 309 309 310 310 311 310 309 310 313 313 312 312 312 312 311 311 310 309 309 308 306 306
Wind_Speed
12 13 13 13 12 12 12 12 13 13 14 14 14 14 13 12 11 10 10 9 8 7 7 8 8 9 10 11 11 11 14 15 9 9 14 16 15 12 11 8 6 6 8 9 11 12 9 5 4 6 5 6 6 5 7 6 5 5 2 3 4 3 3 2 2 3 4 7 10 15 14 9 5 9 8 5 9 12 9 10 10 12 16 14 9 12 12 12
10 12 12 12 11 11 12 12 12 13 13 13 13 13 13 12 11 9 8 7 7 6 7 7 8 9 8 8 8 6 8 10 10 16 17 13 10 10 11 10 8 7 8 8 8 7 5 1 3 4 2 4 5 4 5 6 7 5 2 3 4 2 4 6 6 5 3 10 12 14 13 9 4 8 9 4 7 12 11 12 13 14 17 18 17 19 18 16
9 10 10 10 10 10 11 11 12 13 13 13 13 12 12 11 10 9 8 6 5 6 6 7 8 6 5 5 4 4 4 5 9 14 14 9 7 9 10 10 11 11 10 9 7 7 5 2 4 5 1 3 6 6 6 7 7 6 4 3 3 4 6 8 8 8 7 16 15 12 12 8 4 7 7 5 7 10 12 12 14 18 21 20 20 23 23 20
8 8 9 9 9 10 10 10 12 13 13 13 12 12 12 12 12 11 9 6 4 4 5 6 5 4 5 3 2 1 1 2 9 12 10 8 8 9 9 10 11 11 11 9 8 8 6 3 7 6 3 5 6 7 7 9 7 6 5 3 3 6 6 6 6 8 8 14 13 11 9 6 5 6 7 6 5 8 14 17 17 19 19 19 20 23 25 23
7 6 7 8 8 9 9 9 10 11 11 11 11 11 11 11 11 11 10 7 4 3 4 4 4 5 4 3 3 3 3 1 7 10 7 8 8 7 8 8 8 9 9 7 7 7 5 5 6 6 5 6 4 4 5 7 5 6 6 6 6 4 5 4 5 8 7 10 11 10 7 4 5 7 10 10 7 7 8 12 16 17 15 15 18 21 24 24
7 5 5 6 7 8 8 8 8 9 10 9 9 10 10 11 10 10 9 7 4 3 3 4 6 7 7 6 4 2 1 1 6 7 6 6 6 6 7 7 7 8 7 7 9 7 5 5 6 6 6 6 6 5 5 6 3 4 4 8 10 7 8 5 7 9 7 8 9 6 4 3 4 7 12 17 21 17 9 5 9 13 15 15 15 18 24 25
8 6 4 4 5 6 7 7 7 7 8 8 8 8 9 10 10 9 8 7 5 3 3 5 7 10 12 11 8 9 12 8 6 6 6 6 6 5 5 6 7 6 5 8 8 6 4 4 5 6 5 4 6 6 6 9 9 6 4 7 9 10 9 6 8 8 6 5 4 3 3 4 7 7 8 19 28 26 18 12 11 12 14 15 14 16 21 25
8 6 4 4 4 4 5 6 6 6 6 7 7 8 8 9 10 10 9 7 5 5 4 4 5 7 9 8 7 14 16 11 7 7 6 6 6 5 5 5 5 5 6 8 7 4 4 4 3 3 3 4 4 3 5 8 11 7 4 6 7 9 8 7 8 6 4 2 2 3 6 8 11 9 11 24 31 27 25 21 20 19 19 19 19 19 18 22
7 6 5 3 3 4 4 4 5 4 4 5 6 7 8 9 10 11 10 7 6 5 4 4 4 5 5 4 3 8 12 10 9 9 7 7 6 6 5 5 5 5 7 7 6 6 5 4 1 1 4 6 5 4 6 5 5 5 7 9 8 8 7 7 6 3 2 1 2 3 8 10 11 10 16 29 28 23 26 26 24 22 23 24 23 23 22 22
5 5 5 3 1 3 3 3 3 3 3 2 5 6 7 8 10 11 10 8 8 7 5 5 5 4 3 3 5 5 7 10 10 9 7 8 8 9 7 5 5 5 5 5 4 4 3 3 3 3 5 6 7 6 7 4 6 10 13 12 10 8 6 5 4 3 1 3 3 4 7 11 9 4 11 22 14 10 17 22 24 21 23 26 24 25 25 26
5 4 4 3 2 1 3 3 3 2 2 2 3 5 7 8 9 11 10 8 9 8 7 6 3 3 2 4 12 8 6 12 11 9 8 7 8 9 9 8 5 4 4 3 1 1 4 7 6 5 3 4 8 9 8 9 12 16 15 11 8 6 5 4 4 3 3 3 4 6 10 13 7 4 15 23 14 10 11 14 20 21 24 26 25 24 25 27
5 4 3 3 2 0 2 4 3 2 2 2 2 4 6 7 8 10 10 8 7 6 7 8 7 7 6 10 17 12 9 14 11 11 11 10 12 10 10 10 8 7 6 5 6 5 7 6 3 4 4 6 5 5 8 10 11 13 9 5 4 4 4 4 4 4 3 2 3 5 8 8 7 12 20 19 16 16 14 14 17 21 24 25 25 25 24 26
6 4 3 2 1 0 1 3 3 3 1 2 2 3 5 6 6 8 9 9 7 5 4 6 7 5 6 10 14 11 11 13 13 15 14 15 16 13 12 12 10 9 7 6 6 5 6 3 2 8 10 8 5 5 9 8 7 7 4 1 3 3 2 5 4 3 3 2 3 4 4 4 7 18 21 13 15 17 15 17 18 19 21 22 22 23 23 23
6 5 4 3 2 1 1 2 3 3 2 2 3 3 4 5 6 6 8 8 7 6 4 4 4 3 6 10 9 9 10 11 13 14 14 15 16 14 13 13 12 11 9 9 7 6 8 8 8 10 10 9 10 11 9 5 4 3 1 1 2 1 1 4 3 2 2 1 2 1 2 7 7 13 15 13 15 15 16 19 19 20 20 20 20 21 22 22
6 5 4 3 2 2 1 2 3 4 3 1 3 3 3 4 5 5 7 6 6 6 4 5 5 5 10 10 6 7 8 8 10 11 12 13 13 12 12 12 13 12 12 12 12 11 11 12 11 11 11 10 11 7 3 3 3 2 2 1 1 1 1 3 1 2 1 1 2 2 2 8 10 9 9 14 15 15 17 18 18 19 19 20 21 21 22 21
5 5 5 4 3 3 2 2 3 5 4 1 2 3 2 2 4 4 5 6 5 4 4 5 5 5 8 7 6 7 7 7 9 9 10 12 12 11 11 13 14 14 13 13 12 11 9 9 11 11 8 5 3 2 1 1 1 2 1 1 1 3 1 2 1 2 2 2 4 6 4 7 7 4 6 11 13 16 18 18 18 19 19 20 21 22 21 21
4 5 5 4 3 3 3 2 4 5 5 3 2 2 1 1 2 3 4 5 5 5 5 6 6 6 6 5 5 5 5 6 7 7 8 10 11 10 9 9 10 11 11 11 10 8 7 7 7 5 2 3 4 3 1 1 2 1 1 2 1 1 2 2 1 1 2 1 4 6 6 11 12 11 15 16 16 19 19 20 20 19 20 20 21 22 21 21
4 4 5 5 3 2 2 2 4 5 6 4 3 3 2 1 3 4 3 2 3 4 4 3 4 4 4 4 5 4 4 4 4 5 6 7 9 9 7 5 6 6 6 7 7 6 5 3 1 2 3 6 7 4 3 2 2 4 4 4 3 2 3 2 0 1 2 3 5 5 8 15 16 17 22 23 20 22 23 23 22 20 20 20 21 22 22 22
4 3 4 5 5 2 2 3 4 6 6 5 4 3 2 2 3 4 4 1 2 2 2 2 3 3 2 4 6 5 4 3 3 3 3 4 6 7 7 5 6 6 2 1 5 7 6 3 2 4 4 5 5 5 3 1 3 5 4 3 5 6 3 1 2 2 1 3 6 7 9 14 15 14 17 21 20 22 24 22 20 19 18 19 21 22 22 22
5 4 3 5 5 3 2 3 4 6 6 6 4 3 1 4 4 3 4 2 6 6 4 5 8 7 6 6 6 5 4 4 4 3 1 2 4 5 5 5 6 8 6 1 2 5 6 5 4 3 2 3 3 3 3 4 5 5 5 5 6 6 3 1 2 3 1 2 6 7 9 13 15 14 17 22 16 17 20 19 19 19 18 19 21 22 23 23
6 4 3 4 5 4 3 4 4 6 6 6 5 2 2 6 4 1 4 7 8 8 7 8 9 9 7 6 5 4 3 4 4 3 2 3 4 4 4 3 3 5 5 2 3 4 5 4 3 2 1 3 4 3 4 4 5 4 4 5 5 4 4 2 3 2 2 1 5 7 9 14 14 13 16 15 6 10 14 16 17 18 17 19 20 22 23 23
6 5 4 4 5 4 4 3 4 7 7 6 6 3 2 5 3 1 3 5 6 6 7 8 8 8 7 5 4 4 3 3 3 2 2 3 4 4 4 5 4 2 3 4 1 3 5 3 1 2 3 5 5 3 4 3 3 4 3 4 5 3 4 3 2 3 3 2 5 8 9 14 14 12 12 5 3 4 8 10 12 13 14 16 17 19 20 19
7 6 5 5 5 4 4 3 5 7 7 6 5 3 1 3 1 1 1 4 3 3 4 5 6 6 5 4 3 3 3 3 3 3 3 4 5 6 6 6 5 3 3 6 2 3 2 1 2 3 4 4 3 2 4 4 2 2 3 2 3 4 4 2 0 3 5 2 4 8 9 11 10 7 5 1 3 3 4 6 8 9 11 12 12 14 15 16
7 6 6 5 5 5 4 4 4 6 7 6 4 3 1 1 1 1 2 2 1 1 2 3 3 3 4 4 3 2 3 4 3 5 6 4 4 5 6 5 4 4 4 5 4 6 2 1 2 3 2 3 3 1 3 4 1 2 3 2 2 3 3 3 5 9 9 3 3 7 7 5 4 5 3 2 4 4 2 2 3 4 6 7 11 13 14 14
8 7 7 5 5 5 4 3 3 5 7 6 4 4 3 2 4 2 1 1 1 2 2 2 2 2 3 2 2 3 4 4 4 5 6 5 3 3 4 4 4 1 3 3 5 6 3 0 1 2 2 2 3 1 3 3 2 2 2 2 2 3 4 6 8 9 6 3 4 3 4 4 5 7 4 2 2 3 2 1 1 3 5 5 5 9 13 14
9 8 7 6 5 4 4 2 2 4 6 6 4 4 4 4 4 2 1 1 1 2 3 3 3 2 1 0 1 3 2 2 4 4 4 6 5 4 4 4 4 2 1 2 4 3 2 0 1 2 2 2 1 1 1 1 2 1 2 2 3 3 4 6 6 6 3 3 5 4 4 3 6 7 5 0 4 3 1 1 0 3 4 7 9 9 8 10
10 9 8 7 5 5 5 2 2 4 3 4 5 5 6 4 2 2 1 2 3 3 4 4 4 3 2 1 2 3 1 1 2 4 4 5 4 4 3 1 2 3 2 3 2 1 1 2 1 1 2 2 1 1 1 1 2 2 3 1 3 3 4 5 5 4 3 3 5 4 3 1 5 7 6 1 3 5 6 6 4 6 5 7 9 10 9 9
11 10 9 7 6 7 7 4 3 5 4 4 5 6 6 4 1 1 2 1 2 3 3 3 3 2 3 2 2 3 2 2 2 2 3 4 3 4 3 1 2 4 2 2 1 2 1 1 2 1 1 1 2 2 0 1 1 2 2 1 2 3 3 4 3 5 4 2 3 5 4 1 5 7 6 2 4 7 8 7 7 10 10 8 9 10 9 8
11 11 10 8 7 8 9 7 4 5 6 5 5 6 6 3 2 1 2 1 1 3 2 3 3 2 3 3 2 3 3 2 1 1 3 4 3 3 4 5 8 8 6 5 2 1 2 2 1 1 0 1 0 1 0 1 1 1 3 2 2 2 3 2 2 4 3 1 2 5 5 2 4 8 5 4 5 6 6 5 7 13 14 12 11 12 11 9
11 12 11 10 9 9 9 9 6 4 6 6 6 7 6 2 1 2 1 2 1 2 2 3 3 1 2 2 2 2 2 2 2 3 4 5 5 6 9 9 8 6 5 7 5 2 1 2 2 2 1 1 1 0 1 1 2 4 4 2 1 1 2 2 3 3 2 2 2 2 4 3 2 7 4 3 4 4 5 5 6 13 17 14 11 12 14 14
12 12 12 11 10 10 9 9 8 5 5 6 6 7 4 0 2 2 2 1 1 1 2 1 0 1 2 2 1 1 2 3 3 3 2 3 4 6 7 5 3 3 3 4 4 1 1 1 1 1 1 0 1 1 1 0 2 2 2 2 2 1 2 2 2 0 2 3 2 0 3 1 1 6 5 5 6 5 5 5 6 11 15 14 14 16 19 19
12 13 13 13 12 11 10 10 9 7 6 6 7 7 3 1 1 2 3 1 1 2 1 0 1 1 2 2 2 1 2 2 3 3 2 1 1 2 2 2 2 2 3 2 1 1 0 0 0 1 1 0 0 0 1 1 0 1 2 3 4 3 3 2 3 1 0 4 3 2 2 1 4 8 9 8 6 6 6 6 7 8 12 16 18 20 21 21
13 14 14 14 13 12 12 10 9 8 7 6 8 5 2 1 3 3 3 0 1 1 2 2 1 1 1 2 1 0 1 0 1 2 1 1 1 1 1 2 4 2 1 1 1 2 2 2 1 1 1 0 1 1 0 1 0 0 1 2 3 2 2 2 4 2 1 4 3 2 0 2 4 7 7 4 3 6 8 10 11 12 13 15 17 20 22 22
15 14 15 15 14 13 12 12 11 9 7 7 7 3 2 4 3 1 3 2 1 1 1 1 2 2 2 2 1 0 1 1 2 1 1 2 1 1 2 2 3 3 2 1 0 1 2 3 1 1 0 1 0 1 2 1 1 1 2 3 4 3 2 2 2 1 3 5 4 1 0 2 3 5 4 1 6 8 9 11 13 12 11 11 14 19 23 24
16 15 16 16 16 15 13 13 12 9 8 8 5 2 4 5 2 1 3 3 1 2 1 0 2 3 1 0 0 1 2 0 2 2 1 1 2 3 2 3 4 3 3 2 1 2 2 3 1 1 1 0 1 2 0 0 1 1 1 4 2 3 3 2 1 2 1 3 4 2 2 4 4 7 6 2 7 7 7 10 11 8 6 8 12 18 24 24
17 16 16 17 17 16 14 14 14 10 9 8 4 3 5 4 1 1 3 5 4 5 4 1 1 3 2 2 1 2 1 1 0 1 1 2 2 3 2 1 3 5 4 3 2 1 1 3 1 0 1 2 1 1 1 0 0 1 1 1 2 2 4 3 0 1 2 1 3 3 4 5 3 6 6 2 6 6 6 9 9 5 5 9 12 18 23 23
17 17 17 18 18 16 15 16 14 11 10 8 4 4 4 2 0 0 1 4 5 7 6 2 2 3 4 3 2 2 2 1 1 1 1 2 2 3 4 1 1 3 2 2 1 1 2 2 2 1 1 1 1 1 1 1 0 1 1 2 2 1 2 2 1 2 1 1 3 2 5 6 4 3 4 2 4 5 6 7 7 5 7 10 14 18 22 22
16 17 18 19 19 17 16 17 14 12 10 6 4 5 2 1 0 1 2 3 4 5 3 2 2 1 3 4 2 4 4 2 3 2 2 2 2 2 4 2 1 1 2 2 0 1 2 1 3 2 1 1 1 1 2 2 1 1 2 2 0 2 1 1 1 1 1 2 3 5 7 5 2 4 2 3 3 5 5 5 6 6 7 10 16 20 22 21
15 12 14 18 19 18 17 16 14 13 9 4 5 5 1 1 1 2 4 2 2 3 2 3 2 1 2 4 2 3 4 3 5 4 2 3 2 0 3 2 1 1 1 3 1 1 2 1 3 3 1 0 1 1 2 1 2 1 2 2 1 1 2 2 1 2 2 1 3 5 6 4 5 5 2 4 4 5 5 4 3 4 6 12 18 20 21 20
13 7 9 15 17 18 18 15 14 12 6 3 5 3 0 2 2 4 6 4 2 2 1 1 2 2 2 1 0 2 3 3 5 4 2 3 2 1 2 2 2 2 1 2 1 1 2 2 2 3 2 1 1 2 3 3 2 1 1 1 1 0 1 1 1 1 3 1 2 2 4 6 6 2 4 5 5 5 3 2 3 4 7 14 17 18 19 19
13 6 8 13 15 18 19 13 10 8 3 2 3 1 0 3 3 4 7 4 1 2 1 2 1 3 3 2 2 2 3 3 4 4 2 3 2 1 0 2 3 4 3 2 1 1 1 2 2 1 1 2 3 1 1 1 2 3 4 4 4 4 3 1 2 2 2 2 2 2 3 7 7 1 5 6 5 4 1 2 4 5 8 13 16 17 18 17
14 6 7 12 14 19 19 10 6 7 4 3 3 1 2 4 4 4 6 4 0 0 1 1 1 2 3 3 2 3 4 3 4 3 3 4 2 0 2 3 3 4 4 2 1 1 2 2 1 2 2 2 2 1 2 1 1 1 2 1 2 3 4 3 3 2 0 0 1 2 1 7 7 0 4 5 4 1 3 5 5 6 8 12 15 17 16 14
15 11 10 11 14 21 19 6 3 5 3 2 3 2 3 4 4 4 5 3 1 1 0 1 0 1 2 1 2 4 4 3 5 4 2 2 1 1 2 4 3 3 2 1 1 1 2 1 1 2 2 0 0 1 2 2 1 1 2 1 1 2 3 4 4 3 1 2 2 3 1 7 6 1 2 3 4 1 6 5 3 6 10 13 15 17 15 13
14 14 12 10 15 22 16 5 4 5 3 2 2 1 2 3 3 5 5 5 4 2 1 1 1 1 1 2 3 3 3 1 4 4 1 1 1 1 2 4 4 1 1 1 2 2 1 1 2 1 3 3 2 2 2 2 0 2 2 2 3 2 5 3 1 2 0 4 7 4 4 8 5 2 1 2 1 5 9 7 5 10 15 15 15 16 12 11
12 11 9 10 19 23 13 5 5 5 4 4 1 2 3 1 4 6 5 6 6 3 2 1 1 2 1 2 3 1 0 1 1 1 1 1 1 1 1 4 5 1 2 0 2 3 2 1 3 4 3 4 3 2 2 1 1 2 1 2 4 5 6 3 1 3 2 5 6 6 7 7 7 6 5 5 6 7 10 12 14 16 17 15 15 13 11 11
10 8 4 6 16 22 16 10 7 3 5 6 2 4 7 2 3 7 6 5 6 5 2 1 2 2 1 2 2 1 0 1 1 0 0 2 1 0 1 3 4 3 1 1 2 2 1 1 2 6 6 6 5 4 3 3 3 3 3 4 5 6 7 5 2 3 5 4 5 8 8 8 13 15 11 9 7 6 9 15 18 19 17 15 13 12 11 12
8 5 7 7 8 13 14 13 11 5 4 10 5 3 9 7 2 4 4 3 5 7 4 1 2 3 2 4 3 2 3 2 2 1 2 2 1 1 1 1 2 4 1 2 2 2 2 2 4 5 7 6 6 6 5 3 3 6 6 6 7 7 7 7 6 6 6 4 7 10 7 8 15 16 12 9 7 7 11 16 18 18 17 15 12 13 13 12
10 5 12 15 8 6 10 13 16 12 7 11 8 4 8 10 5 4 4 3 4 7 5 1 4 6 5 6 4 2 3 2 1 3 2 3 2 1 1 0 1 4 3 1 2 2 2 3 3 2 5 5 4 6 6 5 4 6 6 8 9 9 10 11 12 10 7 6 10 8 6 10 14 14 12 11 11 13 17 19 18 16 14 13 13 15 14 13
17 8 9 17 11 9 18 22 23 19 12 9 7 5 7 10 9 6 5 3 2 6 9 5 5 8 7 6 5 4 5 4 3 5 4 3 4 3 1 1 2 3 3 2 1 2 2 2 2 2 3 6 4 5 7 6 4 5 8 9 9 11 13 14 12 11 10 11 13 12 12 14 16 15 14 18 22 22 22 20 16 13 12 12 15 16 14 14
23 14 7 9 9 11 21 24 19 14 10 9 7 6 7 10 11 8 6 8 5 4 9 9 7 9 9 7 6 5 7 6 3 5 8 5 3 4 3 3 4 3 2 2 1 1 2 2 1 3 2 6 3 3 4 5 5 6 8 8 8 9 11 11 10 8 8 11 15 14 13 14 18 19 18 22 24 20 17 15 11 9 11 13 16 15 14 15
28 21 12 5 5 8 15 16 14 9 7 9 8 5 6 9 12 10 7 13 14 7 11 15 10 7 7 8 8 9 9 7 2 4 11 9 5 6 6 5 8 7 3 4 3 2 2 2 1 4 1 5 1 1 2 2 3 7 10 10 11 11 9 9 9 8 10 12 12 9 8 11 16 15 12 14 14 12 12 11 9 10 13 15 15 13 13 17
34 27 19 8 4 8 12 9 9 9 8 10 11 10 10 11 14 14 7 9 15 14 16 20 15 8 5 8 13 16 13 7 2 4 9 9 6 6 5 7 11 10 7 5 3 2 4 3 2 3 2 4 2 1 1 2 4 7 8 10 14 14 9 7 7 9 13 12 7 6 9 10 9 6 4 5 7 8 10 10 10 14 16 16 14 11 14 18
Wind_Direction
76 81 83 87 90 91 91 89 84 81 78 73 72 71 70 70 70 73 75 75 77 82 95 107 113 109 99 89 79 68 63 55 58 83 67 52 50 57 65 76 98 104 120 102 68 51 41 44 40 66 64 35 29 18 52 35 17 20 333 106 84 91 92 337 45 94 129 128 147 162 177 191 171 179 207 232 222 229 239 245 239 241 236 219 236 254 230 225
79 83 85 90 94 96 96 94 88 84 82 78 73 69 66 62 59 60 62 67 73 79 94 105 115 114 92 69 67 80 79 59 68 72 50 38 47 52 57 70 86 95 112 95 69 49 31 52 4 29 67 46 35 19 36 15 21 29 340 89 51 47 54 22 49 54 113 138 152 162 180 203 166 169 195 214 220 219 228 242 233 234 241 229 229 244 243 233
84 87 89 94 98 99 99 98 94 89 85 82 77 70 64 59 52 44 40 45 61 79 93 105 110 99 53 41 64 84 96 74 59 48 34 38 46 44 57 68 75 78 79 75 86 87 72 74 358 3 34 70 46 34 35 12 19 28 15 75 80 108 73 40 52 47 101 138 146 159 180 202 167 163 185 210 235 225 223 230 220 224 234 234 231 238 245 240
84 91 93 99 105 104 101 101 99 93 86 80 74 70 65 59 51 40 31 31 54 87 105 114 92 29 10 13 23 11 171 90 31 19 25 40 42 48 60 65 67 66 62 65 82 82 71 18 7 10 45 80 58 46 34 6 16 33 26 71 119 136 94 41 64 58 91 136 142 148 166 211 202 182 197 212 245 245 237 231 222 227 234 238 237 237 244 244
79 98 100 104 114 113 108 106 101 95 88 80 72 68 63 54 47 38 28 21 44 91 104 102 42 3 358 358 336 310 259 211 7 10 27 31 36 47 53 61 64 60 54 57 68 59 34 11 13 12 34 58 45 46 32 8 51 64 41 57 57 104 107 66 111 90 85 125 134 140 156 204 196 208 220 218 230 226 229 232 225 230 239 243 240 236 240 244
71 97 112 114 121 125 121 113 107 98 90 82 72 66 60 50 41 35 24 15 26 63 79 76 65 65 70 55 15 318 124 78 357 15 35 25 33 39 46 60 59 58 51 51 51 31 18 13 10 25 49 57 42 52 39 12 69 98 63 53 41 68 103 104 125 108 93 119 131 149 176 191 198 241 236 227 236 233 215 207 211 215 223 233 236 232 235 240
65 83 116 131 128 134 133 125 116 106 95 84 70 63 60 51 39 32 22 19 26 38 58 70 84 90 87 75 60 81 88 65 20 34 44 34 39 43 51 58 51 45 52 62 44 16 17 2 16 54 78 81 65 67 49 44 69 97 104 64 56 77 91 113 133 118 100 118 147 178 213 227 226 255 253 237 244 245 238 229 223 222 222 224 221 223 233 241
62 71 98 137 148 145 143 141 129 115 103 86 71 61 59 52 41 36 31 27 22 21 32 53 90 100 93 88 68 68 62 43 44 52 44 46 47 50 50 42 41 45 65 69 57 56 39 5 37 75 69 68 78 68 31 47 60 60 101 98 84 83 86 115 130 126 104 121 230 226 247 254 242 256 270 255 253 253 251 246 242 243 243 237 225 218 225 235
59 63 73 112 158 162 155 153 143 135 116 86 76 64 55 51 41 36 38 37 26 13 14 43 110 124 85 71 69 54 36 31 51 52 51 57 49 46 46 38 43 63 76 69 79 92 59 31 70 175 91 75 76 54 4 6 54 64 109 113 104 100 107 121 130 148 129 225 270 257 258 261 254 261 270 264 263 260 255 253 249 245 245 245 236 227 224 227
49 59 64 73 123 175 175 169 160 154 134 85 80 71 58 50 37 34 40 42 38 30 41 75 127 130 33 28 88 69 31 45 53 49 54 53 50 46 43 47 51 71 81 78 102 105 79 91 103 101 102 84 71 48 11 38 111 115 114 108 110 117 126 129 139 174 205 250 241 256 265 265 255 240 266 266 269 262 250 245 244 239 238 243 242 237 234 231
31 46 62 65 56 194 197 190 191 170 143 101 85 81 69 54 38 33 35 41 40 37 64 92 121 64 21 117 100 90 59 64 62 57 59 56 63 58 54 60 60 78 81 72 87 202 156 136 112 86 86 99 83 61 64 103 124 127 122 107 111 129 138 151 153 177 238 255 235 260 268 263 243 200 257 262 257 249 242 233 232 229 231 238 243 244 242 241
13 23 43 59 63 4 225 202 200 189 147 113 100 90 77 61 44 35 30 34 35 37 73 94 100 81 95 104 92 91 80 74 72 71 73 72 69 62 63 61 56 77 84 83 86 110 145 151 132 96 105 126 114 78 103 125 133 143 149 108 126 157 154 187 183 177 222 246 274 296 282 260 197 218 258 266 253 246 240 234 230 229 232 237 243 246 247 248
3 6 20 31 43 21 253 216 201 195 171 122 117 98 81 63 48 38 28 26 31 41 72 99 106 96 92 83 81 93 87 77 77 75 76 77 71 64 65 63 60 75 83 89 92 115 146 168 151 122 119 119 121 128 130 138 149 170 214 83 152 192 181 185 171 187 227 230 287 334 313 286 202 228 256 263 242 235 230 233 233 233 237 240 244 245 247 249
358 360 6 9 356 317 262 232 201 189 193 131 128 114 84 62 46 37 29 24 28 43 65 100 100 112 97 83 84 95 90 84 81 77 76 76 74 66 66 70 70 75 81 84 86 101 112 109 110 111 105 105 122 131 127 143 187 182 63 51 187 271 192 174 160 197 215 209 270 23 259 275 268 252 251 238 230 224 224 231 231 232 235 240 244 244 245 247
355 357 359 0 344 307 271 230 202 184 187 161 141 135 95 64 46 34 29 26 31 42 67 93 90 113 101 87 86 89 88 92 90 85 79 76 73 66 66 73 75 76 79 81 82 84 98 110 110 100 95 105 126 137 134 169 211 155 67 344 261 325 195 169 171 206 264 325 201 171 258 270 288 287 231 216 224 221 227 234 232 232 232 235 240 242 244 246
353 351 352 355 348 313 283 226 200 182 177 177 159 156 128 59 38 34 28 30 45 52 77 96 93 104 96 85 86 83 84 96 96 91 84 77 70 67 72 77 76 76 74 76 80 81 91 106 99 99 110 118 138 217 188 164 224 164 208 326 45 328 293 168 246 237 280 330 205 206 260 277 285 288 205 210 227 225 228 233 232 232 233 233 235 237 242 246
349 344 343 344 345 319 289 228 193 180 176 174 168 178 189 20 11 20 28 36 56 69 87 101 100 87 82 96 93 76 80 92 94 92 89 78 64 62 69 73 73 70 69 68 70 74 77 88 90 95 103 32 0 314 18 24 338 26 324 323 69 316 272 238 316 248 224 245 232 217 241 263 266 271 263 254 244 232 229 234 235 235 235 236 233 232 238 242
339 332 335 333 331 320 281 236 194 179 175 174 167 185 218 298 335 349 11 38 68 85 102 98 107 91 71 102 103 80 79 79 85 95 95 77 57 51 47 57 72 62 61 63 52 45 45 52 81 59 42 29 15 4 59 69 331 348 351 345 345 314 276 281 15 222 225 214 242 247 256 266 270 272 271 267 250 234 233 239 241 240 239 239 233 231 235 240
326 315 326 327 322 306 249 229 202 181 176 177 173 185 228 304 330 352 355 243 136 126 159 35 81 125 118 121 109 89 77 64 75 87 98 72 40 34 42 68 77 49 37 64 31 24 24 19 30 36 26 17 14 24 44 18 315 317 322 319 311 305 296 345 113 172 246 259 254 253 256 270 283 283 279 281 261 232 235 242 240 242 242 239 235 233 235 237
316 303 310 323 314 289 224 212 206 189 179 175 174 179 282 322 311 340 9 84 104 111 128 88 93 116 127 126 112 95 80 66 65 55 61 32 10 24 53 77 73 49 48 83 344 11 37 50 50 45 17 357 357 359 335 294 282 295 314 299 287 299 298 70 110 169 157 307 269 261 269 278 285 285 285 288 266 221 226 234 235 240 240 239 238 237 237 239
308 294 290 315 307 275 221 209 206 193 183 176 174 161 359 331 309 82 63 70 82 95 113 110 110 117 122 125 117 108 92 69 52 31 22 358 0 30 48 48 60 45 31 332 285 353 42 75 64 55 12 323 309 313 317 304 301 308 315 304 307 318 305 3 87 182 138 67 279 292 302 288 284 284 285 287 251 202 218 225 234 239 240 242 240 240 242 244
298 288 278 301 300 266 230 220 208 196 189 180 181 185 348 341 324 146 87 72 75 88 107 116 117 118 123 125 121 114 98 72 39 23 30 17 26 54 58 50 64 84 13 350 327 26 45 84 84 40 3 308 276 267 292 289 303 312 303 305 319 340 324 336 96 163 157 149 284 311 310 292 287 282 281 277 150 196 231 233 244 246 245 244 241 244 244 240
283 284 270 286 298 258 232 241 212 197 193 186 191 213 328 357 323 234 116 92 83 82 100 112 114 115 121 116 113 118 97 70 29 15 22 34 59 67 68 62 66 98 28 5 51 121 84 90 56 15 350 321 272 240 290 277 227 309 342 340 316 1 9 297 318 307 276 253 293 300 292 286 288 282 277 191 174 240 260 259 264 260 255 246 238 241 237 230
270 279 265 277 293 254 233 253 220 197 195 188 193 205 207 354 214 176 99 93 108 162 134 115 111 107 110 100 91 110 101 84 37 17 28 52 80 66 65 67 65 69 22 10 76 105 111 89 28 336 294 311 302 340 11 348 38 39 25 43 305 348 356 269 307 311 296 303 298 292 298 288 304 332 322 217 235 259 261 289 311 307 288 254 235 231 227 226
258 269 263 267 284 254 235 259 227 201 197 188 187 192 189 169 157 153 11 18 224 192 178 163 137 119 121 108 80 94 96 79 41 23 38 55 74 93 84 63 63 61 325 2 86 88 78 68 8 320 274 287 308 21 47 15 20 13 10 42 347 328 311 291 311 318 321 332 295 337 7 309 329 345 310 220 292 289 196 221 314 20 9 347 286 256 239 236
250 259 259 257 270 250 228 257 236 210 198 189 188 180 181 168 164 227 311 1 276 188 164 183 175 161 154 88 109 107 78 38 40 34 46 54 62 106 98 47 60 96 282 75 95 94 90 96 349 322 300 296 326 39 349 13 47 333 267 325 331 306 295 304 321 326 334 305 299 21 57 281 319 325 284 23 353 326 101 22 37 94 22 6 359 336 301 272
246 250 254 252 256 240 219 226 222 200 184 195 200 184 186 180 179 254 61 18 276 169 144 180 188 197 218 240 176 144 117 202 88 46 48 55 55 99 107 21 67 99 143 117 82 17 105 137 230 263 274 278 225 190 287 4 79 247 244 287 318 307 300 315 328 293 275 301 319 4 73 224 302 294 269 271 5 1 23 4 17 74 45 18 16 0 346 325
243 244 249 248 248 237 225 231 222 195 189 201 202 191 192 196 271 253 117 25 255 137 125 167 167 184 182 168 177 146 113 138 125 30 46 59 61 91 86 17 100 101 74 74 243 289 24 134 198 212 204 248 233 171 273 358 124 215 264 268 304 326 307 308 312 271 278 357 337 337 33 82 269 284 293 338 37 8 0 354 7 40 44 36 32 19 8 348
242 241 244 244 244 238 230 234 231 206 206 205 198 195 190 199 288 26 97 208 167 100 100 155 159 166 147 122 75 83 74 63 77 35 47 59 59 79 91 103 112 103 57 47 108 205 12 63 102 58 164 207 173 114 99 313 190 271 314 278 251 276 269 266 273 274 302 11 287 317 360 34 281 289 310 19 31 349 339 351 9 28 33 33 31 18 12 9
244 240 240 241 241 238 233 232 233 227 215 211 202 194 185 193 344 68 123 226 130 95 98 145 167 160 140 127 47 41 51 42 49 59 60 65 70 88 107 110 105 103 64 52 70 86 54 76 73 41 65 71 17 88 171 282 309 327 327 291 225 219 254 243 236 258 345 312 253 303 349 48 327 285 286 17 1 359 7 350 355 16 20 25 27 16 19 26
249 240 237 239 239 237 233 228 232 232 220 217 204 185 179 132 61 129 192 216 65 138 119 98 176 145 168 150 72 32 66 43 13 43 68 65 72 94 106 104 84 70 45 42 50 74 130 82 49 59 100 63 358 234 197 255 335 357 333 322 22 11 341 8 295 279 50 291 248 88 339 43 204 266 281 321 339 33 46 10 0 12 21 35 44 38 37 36
253 244 238 236 236 236 230 225 228 224 223 219 197 180 160 93 147 215 235 350 1 201 143 54 305 220 195 126 76 46 83 45 8 38 62 52 92 141 119 175 156 53 325 298 15 335 271 296 168 81 61 177 138 333 316 306 300 13 341 12 42 9 352 5 311 306 123 272 232 143 340 287 223 250 265 290 333 41 57 49 47 45 52 56 52 43 35 28
254 247 240 234 234 235 228 226 225 220 224 212 191 177 118 187 217 213 207 236 301 246 71 67 49 58 119 123 113 21 92 263 342 47 25 33 60 251 320 172 150 109 252 195 43 346 323 315 237 124 36 167 165 129 130 288 4 23 1 58 90 50 17 309 291 316 298 282 254 171 150 295 280 264 245 264 19 67 68 71 81 83 76 62 49 37 26 19
253 250 244 237 233 233 228 225 223 222 222 204 185 158 140 210 232 186 184 203 255 248 51 67 108 70 57 107 201 212 115 278 319 49 2 32 50 273 266 205 164 114 105 102 46 187 232 282 268 119 49 213 224 98 166 216 12 219 175 111 127 136 132 225 261 285 276 296 303 304 158 205 266 270 239 123 86 88 84 94 99 88 71 56 41 24 16 12
251 252 246 240 234 230 228 222 220 224 217 195 178 163 191 207 222 186 177 170 179 179 146 244 144 115 24 87 219 239 147 222 334 50 107 154 177 227 213 197 207 173 126 152 228 153 193 255 268 37 5 52 1 3 24 62 6 267 111 89 132 167 149 162 190 212 225 331 310 282 243 212 227 272 281 110 117 116 106 111 109 91 53 36 21 8 6 7
249 251 247 242 235 228 227 221 217 220 208 187 174 209 215 211 197 179 155 140 153 155 140 175 169 152 210 213 253 275 123 106 311 80 164 195 225 242 216 151 199 190 147 150 203 138 184 273 284 57 15 33 8 326 358 103 264 320 72 107 221 162 120 119 333 301 102 58 282 262 279 292 322 308 306 91 136 148 130 122 116 96 29 14 6 1 359 358
246 249 247 242 234 228 225 219 214 214 206 193 203 222 217 223 257 12 105 120 138 148 144 156 187 183 194 194 205 188 146 189 202 138 193 231 260 220 195 124 142 181 145 124 211 171 143 264 277 293 333 305 233 309 348 342 88 103 143 233 246 95 91 109 59 334 30 253 273 266 272 297 351 313 305 43 131 140 117 111 97 58 15 4 359 356 353 352
243 248 249 243 233 227 222 217 212 207 200 198 230 236 214 191 185 89 123 129 132 145 159 185 191 188 181 184 189 156 151 183 175 159 181 204 249 181 154 156 52 89 98 95 279 280 105 242 279 320 329 225 194 14 331 333 1 159 207 259 222 103 113 117 117 271 290 270 279 298 291 280 230 228 265 39 102 115 84 75 64 34 10 2 356 350 347 350
237 245 251 244 231 224 221 215 205 199 199 204 222 229 209 130 156 158 160 156 121 139 176 207 173 57 169 173 146 144 172 179 160 173 190 176 221 11 110 151 84 72 126 115 141 266 90 124 269 290 277 201 51 205 215 290 341 310 313 336 28 142 170 169 161 170 166 240 274 314 321 288 233 210 133 65 81 99 71 45 28 8 4 1 354 347 343 348
220 226 250 242 228 222 217 208 198 196 202 209 199 213 277 111 154 188 174 157 111 144 206 263 155 147 190 193 109 164 185 186 162 176 208 181 200 339 51 106 113 137 161 85 60 329 68 124 237 294 318 298 216 209 192 171 139 122 133 146 189 177 121 162 267 170 142 166 252 288 302 275 250 203 100 81 94 111 92 14 319 337 1 356 350 345 343 346
201 209 250 234 223 217 205 194 196 198 208 226 195 207 224 149 142 179 183 171 131 147 157 353 89 152 160 171 244 195 162 186 192 191 215 197 189 287 287 107 115 148 135 80 271 279 96 153 184 211 281 236 228 264 38 134 149 153 168 176 178 160 116 95 284 288 113 141 204 203 259 269 262 214 95 101 118 122 117 283 295 328 349 349 345 342 342 347
192 204 240 221 216 208 193 185 201 197 204 225 200 155 159 152 135 164 183 184 203 99 89 6 34 148 167 175 199 170 150 173 202 207 226 201 161 57 190 153 131 155 139 112 208 189 103 122 170 217 210 202 229 314 23 324 271 140 172 185 160 164 149 143 195 243 332 137 166 112 243 269 269 154 96 121 137 111 302 282 294 327 339 342 342 338 339 348
200 210 224 219 210 196 185 183 204 190 211 212 176 147 148 140 119 144 170 182 177 140 112 271 204 166 195 170 143 172 175 177 187 190 218 204 151 33 187 166 156 165 128 102 169 121 81 118 182 264 288 100 247 293 321 322 355 344 274 239 165 179 153 144 171 181 142 186 160 100 252 264 273 306 110 153 156 333 320 306 299 328 340 342 336 333 338 347
212 217 228 230 207 191 186 195 190 192 218 159 132 149 154 152 155 152 165 183 183 174 182 219 223 197 186 120 123 176 194 174 189 195 214 193 164 54 155 168 169 154 74 149 159 142 176 193 161 232 314 322 333 341 320 333 18 231 254 197 189 154 98 89 158 112 33 220 180 153 239 256 275 300 199 194 257 322 338 356 353 338 343 340 330 331 339 346
217 220 226 222 201 192 197 214 187 192 199 169 154 191 170 176 197 181 165 169 183 190 179 194 166 120 106 100 93 93 88 85 170 187 56 102 104 61 154 185 181 134 16 224 149 137 183 203 146 156 208 239 244 268 253 237 195 221 201 165 202 182 141 138 131 119 225 229 180 183 236 263 291 290 279 292 304 320 338 345 339 336 337 332 327 333 341 346
216 216 194 183 192 198 212 223 209 206 180 175 201 194 181 192 201 188 172 160 181 180 146 121 124 101 82 131 121 142 170 70 81 103 137 148 141 18 172 186 186 180 19 76 140 125 83 282 203 185 200 207 196 213 215 147 140 189 185 186 205 196 180 175 150 176 203 208 210 225 241 282 291 283 285 296 298 310 329 333 331 330 329 328 331 335 337 346
220 227 188 160 175 204 221 230 228 243 181 176 184 180 185 190 159 169 184 181 182 175 154 133 161 165 189 161 146 188 184 97 76 207 203 158 113 28 158 169 202 207 213 81 147 132 80 270 245 214 225 223 187 194 196 156 181 196 187 198 203 197 186 180 202 214 180 175 246 241 223 254 271 274 281 291 300 314 319 320 320 320 322 326 328 329 332 342
212 251 216 199 190 186 201 215 216 219 204 183 182 165 183 192 178 169 187 181 173 175 169 198 214 213 209 178 162 166 160 136 214 210 179 146 142 86 119 239 237 202 194 123 164 147 120 244 248 212 253 260 195 183 175 162 212 214 198 204 197 188 188 192 213 221 187 201 248 249 225 242 263 274 279 286 299 304 304 307 309 312 319 324 323 325 330 340
210 254 232 207 208 187 188 198 201 205 209 193 187 184 182 192 196 186 158 126 191 204 188 196 220 210 209 201 183 165 163 173 217 215 189 145 161 163 132 218 220 195 176 129 171 181 151 236 220 148 284 285 237 188 173 176 224 242 227 219 200 193 199 203 217 222 216 235 254 261 268 268 269 271 276 287 293 292 292 297 301 308 318 321 323 328 334 341
209 226 221 205 223 202 191 194 193 199 211 203 206 204 186 193 197 187 165 166 182 194 185 203 218 189 192 210 203 203 205 192 189 199 180 145 153 195 190 173 163 165 181 163 179 208 177 222 179 109 332 292 252 155 168 190 219 247 248 238 214 208 212 219 230 225 222 247 256 262 275 276 269 269 274 281 282 281 283 286 292 307 315 319 325 333 340 342
207 209 207 212 244 202 190 191 186 189 209 208 206 189 190 209 197 184 198 205 199 179 179 199 205 173 178 203 213 232 226 199 155 172 177 170 174 195 199 171 148 143 173 184 165 150 171 212 55 85 321 284 288 125 216 230 259 266 265 251 224 213 208 213 222 206 199 225 245 258 264 259 263 269 270 266 264 266 274 283 297 308 312 320 327 335 343 343
210 208 208 216 240 196 191 191 184 190 206 206 199 189 201 216 196 183 204 224 212 207 201 199 190 165 165 197 214 228 224 199 130 135 171 176 160 152 159 162 156 154 162 164 151 159 171 174 142 131 197 276 289 225 227 351 322 274 253 231 213 208 212 223 234 219 206 205 209 223 232 239 252 260 252 258 268 274 282 292 302 305 309 315 322 335 344 341